Location: Oberwangen
(47.4286°N, 8.9679°E)
Time: 15:33:44
(UTC+00:00)

CZ-2D R/B - Pass Details

Date: 20 June 2021
Orbit: 791 x 845 km, 98.7° (Epoch: 03 August)

Event Time Altitude Azimuth Distance (km) Brightness Sun altitude
Rises 23:31:15 0° 32° (NNE) 3,302 6.3 -19.1°
Reaches altitude 10° 23:34:56 10° 59° (ENE) 2,365 5.0 -19.1°
Maximum altitude 23:37:24 13° 87° (E) 2,133 4.4 -19.1°
Drops below altitude 10° 23:39:52 10° 116° (ESE) 2,361 4.3 -19.1°
Enters shadow 23:40:23 - 121° (ESE) 2,459 4.4 -19.1°
